Theta_e
300 300 300 301 302 302 302 305 306 313 313 308 305 307 299 296 292 307 309 311 308 300 292 295 292 290 294 299 296 296 293 292 294 293 294 293 290 291 291 291 290 290 290 289 288 288 283 286 285 286 284 285 287 288 291 292 292 292 285 289 288 291 282 280 279 279 281 282 283 285 284 286 286 284 282 283 284 282 280 279 279 281 276 275 273 273 280
299 299 300 301 301 302 303 304 311 313 311 308 306 300 296 297 297 299 308 310 307 296 286 285 285 290 293 293 292 293 292 292 291 292 293 293 291 291 291 291 294 290 293 291 288 290 283 286 287 284 284 286 287 289 291 293 292 291 289 290 291 285 281 284 274 273 277 277 283 283 284 285 281 281 283 282 282 281 279 279 278 278 278 280 277 277 279
299 299 299 300 301 302 303 305 313 312 313 311 306 297 298 299 301 300 301 308 304 293 294 290 288 288 288 289 289 289 290 293 294 294 293 294 293 292 290 292 293 291 292 291 292 291 290 284 288 284 285 288 288 291 292 295 292 294 292 295 292 287 283 283 276 275 272 272 274 278 280 280 281 280 283 284 286 283 282 280 278 278 280 281 279 281 281
298 299 299 300 301 301 303 308 312 312 312 311 306 301 299 295 285 292 295 301 300 299 300 295 291 289 290 289 290 291 288 291 294 296 294 293 294 291 293 290 293 290 290 288 288 288 288 288 284 286 285 286 287 289 292 294 293 294 295 293 293 282 283 286 285 283 281 282 284 284 284 282 283 284 285 285 286 286 286 281 280 281 280 279 284 283 281
298 299 299 300 300 301 303 311 312 312 311 310 305 300 298 298 291 291 285 294 296 294 293 293 294 290 294 287 290 288 288 290 291 296 292 290 292 289 292 290 290 288 289 287 287 289 287 284 287 287 286 287 288 290 290 293 293 294 292 294 289 282 283 285 285 285 286 284 282 284 289 285 286 284 283 285 285 284 285 282 283 281 277 279 281 282 281
298 299 299 299 300 301 303 309 312 311 310 310 306 294 289 291 293 296 297 289 285 290 288 294 293 294 294 290 293 289 288 288 287 291 291 292 292 290 289 291 292 291 290 289 285 286 285 285 285 287 284 284 284 288 288 290 292 293 291 293 291 287 285 286 285 284 283 280 283 285 287 287 286 286 286 285 286 285 284 285 286 283 283 281 283 285 284
298 298 299 299 300 301 304 306 310 310 308 306 300 294 290 292 291 293 299 293 294 293 292 294 294 292 293 290 291 289 288 287 290 290 288 290 289 292 285 288 290 291 292 290 286 287 283 282 286 286 285 286 285 284 285 288 288 291 289 290 285 288 284 284 285 284 282 282 283 285 286 284 284 285 286 287 287 286 286 286 287 286 285 287 285 283 284
298 298 298 299 300 301 303 306 310 309 307 303 295 287 290 291 292 286 290 292 294 295 294 293 293 291 293 288 290 290 288 287 290 291 291 287 289 293 290 289 290 291 291 291 288 288 290 288 285 288 288 286 287 286 287 284 284 286 287 288 283 287 280 286 283 279 280 281 282 283 284 284 283 283 285 286 287 287 287 287 287 287 286 287 286 285 286
297 298 298 299 300 301 303 305 310 309 306 296 292 288 290 292 297 296 291 289 293 294 294 292 291 290 291 289 290 290 289 289 291 291 293 292 289 290 290 291 290 291 291 291 290 292 292 292 291 290 290 286 289 287 281 288 286 286 286 285 285 286 278 281 281 279 276 280 281 281 282 281 280 282 283 284 285 284 285 284 286 284 285 285 284 284 286
297 298 298 298 299 300 302 303 306 306 304 295 293 291 291 293 292 296 296 289 294 292 293 293 292 288 291 291 290 290 289 291 292 289 289 290 292 293 293 292 291 289 290 289 291 294 294 294 293 294 295 295 293 290 290 291 289 287 287 286 285 282 280 279 277 278 275 277 281 280 279 279 277 280 284 286 285 286 286 288 288 289 289 285 283 285 288
297 297 298 298 299 300 301 303 303 302 297 292 290 289 291 296 294 292 293 289 290 293 292 291 290 291 293 293 291 292 291 291 292 289 287 291 291 291 294 292 290 289 289 292 293 292 292 292 292 291 292 293 292 292 292 293 293 292 288 287 283 285 285 280 282 279 272 273 278 278 278 272 278 288 287 287 286 285 284 285 287 288 288 288 290 289 287
297 297 297 298 298 299 300 302 302 302 299 294 294 291 290 295 298 293 292 288 288 292 292 289 291 292 292 291 292 291 290 290 291 293 289 287 289 292 293 293 292 287 290 295 297 297 296 296 294 294 292 291 291 292 292 291 288 290 292 291 286 287 287 283 279 279 272 271 276 277 272 276 286 280 286 290 289 288 288 289 289 289 289 290 290 289 286
297 297 297 297 298 299 299 301 302 301 300 296 295 292 291 293 296 293 294 291 288 290 289 291 292 292 291 289 290 290 291 291 290 290 290 290 288 290 293 293 291 290 295 296 296 296 291 286 287 287 287 289 289 290 289 288 286 287 286 287 290 287 286 278 272 272 271 270 276 271 276 281 281 282 283 286 290 289 288 286 287 287 287 289 289 291 292
297 297 297 297 298 298 299 300 301 301 300 298 294 292 293 293 295 294 293 291 289 291 292 288 288 288 288 288 288 288 290 289 289 292 290 291 291 290 288 291 293 296 297 297 294 291 287 287 285 286 282 285 284 285 284 285 283 284 287 285 287 290 285 285 277 273 274 272 276 278 279 280 285 283 282 285 283 282 285 281 286 290 290 289 290 291 291
296 297 297 297 297 298 299 299 300 301 300 299 295 293 293 292 292 293 290 295 289 289 291 286 288 289 289 288 290 289 289 287 289 286 285 285 289 288 290 291 295 297 297 295 287 287 286 285 280 281 280 282 278 280 281 280 283 283 282 283 285 288 286 283 283 273 273 274 269 269 273 275 282 283 282 288 289 290 289 286 285 290 291 291 290 289 289
296 296 296 297 297 298 298 299 299 300 300 299 295 292 292 293 294 294 293 291 291 286 288 289 292 291 288 287 290 290 288 287 287 286 285 284 286 289 289 290 294 295 294 290 287 288 286 285 282 282 279 281 282 281 276 278 280 283 283 283 284 282 282 283 286 277 272 271 274 273 273 279 280 284 285 288 288 289 287 283 283 287 289 289 290 289 289
295 296 296 297 297 297 298 298 299 300 299 299 293 293 291 294 292 293 292 287 288 286 286 287 287 289 289 288 289 287 288 287 288 287 284 284 286 287 289 290 288 291 293 292 285 286 283 282 283 281 278 282 282 279 281 277 278 279 280 282 282 283 277 280 275 271 276 277 272 276 273 278 281 283 285 288 287 290 287 274 280 285 286 288 289 290 290
295 296 296 297 297 297 297 298 299 299 300 299 295 291 291 294 293 293 293 290 285 282 287 287 286 289 289 287 289 288 288 287 286 287 286 282 282 286 288 287 287 289 291 291 286 287 285 283 282 282 282 282 284 285 279 281 280 280 280 281 276 277 275 277 281 279 276 281 272 269 277 282 280 282 284 286 290 289 280 278 280 286 286 287 289 289 289
296 296 296 296 297 297 297 298 298 298 299 299 296 294 291 293 294 295 293 288 288 283 286 289 288 287 286 286 286 286 286 288 288 287 286 286 285 286 288 286 289 288 285 286 288 286 285 280 281 281 281 278 282 283 283 281 281 277 282 278 274 274 276 272 274 276 279 279 279 277 277 281 285 279 285 288 288 276 280 285 284 286 284 282 289 288 288
295 296 296 296 297 297 297 298 298 298 299 299 296 290 291 294 294 294 293 286 286 283 286 285 287 285 287 288 288 286 285 285 287 289 288 287 285 289 290 286 287 286 285 287 285 281 283 282 284 279 281 283 282 284 280 278 280 281 281 285 283 281 280 277 279 275 271 268 276 271 274 282 286 285 284 284 285 286 285 282 284 285 286 285 284 286 286
295 295 296 296 296 297 297 297 298 298 298 298 296 291 290 293 294 295 295 293 288 285 284 289 289 287 288 286 287 289 289 289 286 289 286 289 290 290 285 285 289 287 287 289 285 284 283 283 278 278 281 285 283 282 282 280 277 281 284 285 282 285 281 275 279 281 280 278 276 278 285 285 288 289 286 288 287 283 286 287 289 283 283 285 286 286 285
295 295 295 296 296 297 297 297 297 297 298 298 296 292 288 291 293 294 295 294 288 284 286 290 291 289 290 291 290 290 290 289 288 289 290 288 284 287 284 284 284 284 286 283 282 277 277 279 278 278 280 277 279 284 281 280 277 278 278 282 279 285 286 286 283 281 280 281 284 285 284 288 289 291 290 293 292 284 285 289 289 287 284 283 285 289 286
294 295 295 296 296 296 297 297 297 297 298 298 295 290 287 289 290 294 294 289 290 290 290 289 290 291 292 292 293 292 290 291 290 289 288 292 286 283 283 288 287 286 283 285 287 286 282 282 278 281 280 278 284 277 277 276 278 278 282 284 282 284 285 282 284 281 284 284 285 283 280 282 287 285 282 291 293 286 283 285 289 286 287 285 288 287 286
294 294 294 295 296 296 297 297 297 297 297 297 295 290 289 290 290 291 292 291 287 284 286 288 285 282 284 286 290 292 292 291 292 292 291 291 290 282 285 285 287 284 284 285 284 287 285 284 283 282 285 283 283 280 282 278 279 281 282 280 281 281 282 285 283 281 285 282 289 285 285 284 286 289 285 282 286 287 284 284 286 288 286 286 286 287 286
294 294 294 294 295 296 296 296 297 297 298 297 293 293 292 289 290 290 289 286 284 286 280 282 283 287 288 290 291 290 291 292 294 292 293 292 291 290 287 287 287 287 287 285 284 287 286 285 281 281 285 284 287 284 285 285 279 281 283 282 281 283 284 286 281 283 285 286 285 283 285 285 287 287 285 288 288 284 283 283 282 282 282 284 285 281 282
293 293 293 294 295 295 295 296 296 297 297 296 294 289 287 287 290 291 289 288 286 285 281 277 282 288 290 289 287 289 292 292 293 293 293 292 290 291 288 286 286 286 286 285 286 286 284 281 277 278 285 283 287 282 281 283 283 283 287 286 286 285 287 283 283 284 284 283 280 281 285 287 285 284 284 285 286 288 287 284 282 282 284 283 281 281 282
293 293 293 293 294 295 295 295 296 296 296 294 291 290 289 289 292 289 285 285 285 282 280 278 282 285 286 285 289 290 290 292 293 293 292 292 292 291 291 289 288 286 287 286 284 284 283 281 283 283 281 282 281 276 275 280 282 282 280 282 284 285 284 282 284 282 283 285 285 283 282 280 285 286 288 289 286 285 285 282 282 282 283 283 284 284 281
293 293 293 293 294 294 295 295 295 295 294 292 290 289 289 288 290 292 291 287 284 280 280 280 280 283 288 286 288 290 291 292 292 292 291 291 291 291 290 288 286 285 283 287 284 282 281 285 281 281 278 280 285 280 277 279 279 276 276 283 286 287 284 284 284 284 284 288 284 288 290 289 285 289 288 285 281 283 285 285 287 285 283 283 284 284 285
293 293 293 293 293 294 294 294 294 294 293 290 284 286 287 288 290 292 292 289 289 286 284 283 284 281 278 283 288 287 290 291 291 291 291 290 290 289 288 287 286 283 283 283 284 282 282 281 282 281 281 283 282 278 278 277 275 282 285 284 284 282 284 289 288 289 285 283 286 287 288 287 285 281 283 283 281 284 284 282 281 282 281 280 281 282 283
292 292 293 293 293 294 294 294 294 294 292 282 282 280 280 283 288 290 293 289 286 286 282 279 276 279 283 284 284 286 288 290 289 289 288 288 288 288 287 287 286 286 284 282 282 282 281 282 280 280 281 284 282 281 279 274 276 282 281 282 285 281 281 283 282 286 285 282 280 279 280 279 279 278 278 278 279 281 283 282 281 280 279 280 281 280 281
292 292 292 293 293 294 294 295 295 294 291 281 279 275 273 273 282 291 292 290 285 285 281 281 277 279 279 284 283 283 285 288 287 287 287 287 287 287 286 287 286 286 283 283 281 282 283 280 282 281 283 286 284 281 278 278 276 273 279 282 283 284 283 283 281 281 281 280 280 280 280 280 279 281 282 280 278 279 279 278 279 280 280 280 280 280 279
292 292 292 293 293 293 294 295 295 293 289 286 282 277 276 280 286 291 291 290 287 284 279 277 275 274 276 280 281 283 284 286 285 286 285 287 285 286 286 287 284 288 287 283 283 282 280 283 281 282 282 287 286 278 276 273 279 277 279 282 282 281 280 281 282 282 282 283 285 285 282 282 282 283 285 281 278 279 283 280 278 278 278 278 276 275 275
292 292 292 292 293 293 293 294 293 292 287 290 293 293 293 293 293 292 289 287 284 278 278 277 275 276 273 274 281 284 285 285 285 284 282 286 283 285 284 285 285 285 290 286 280 279 283 282 284 282 283 283 283 280 275 278 278 281 283 283 280 280 281 281 282 283 282 279 280 283 282 283 282 281 281 279 279 280 280 278 276 276 278 279 279 279 278
291 292 292 292 292 293 292 292 293 292 289 283 281 284 287 293 290 292 288 283 280 278 277 275 272 271 271 278 278 282 285 282 281 283 280 284 284 284 281 283 284 283 284 283 283 281 281 282 281 283 285 280 283 279 278 279 280 281 280 279 279 280 280 282 282 282 279 279 278 282 285 282 281 279 279 280 278 276 276 277 278 279 275 277 276 277 276
291 291 292 292 292 292 292 289 281 281 277 279 279 283 288 292 291 289 286 280 275 275 274 275 275 271 271 271 272 278 282 282 279 281 280 281 284 281 283 280 282 279 280 286 279 280 281 281 285 281 277 284 280 277 278 277 279 280 281 280 279 281 282 282 281 279 278 279 281 282 282 283 283 282 281 280 278 277 278 276 276 278 278 277 277 276 275
291 291 292 292 291 290 285 286 282 279 278 278 280 289 291 291 289 284 284 284 281 275 273 273 273 270 272 269 270 276 283 280 280 278 279 281 280 282 280 280 277 279 282 279 278 280 278 283 282 277 284 279 278 280 280 281 281 282 283 281 282 284 284 285 282 280 280 281 282 282 283 283 284 283 282 280 279 277 276 277 277 278 278 277 277 275 274
292 291 291 289 282 281 277 276 282 278 278 283 287 290 290 289 281 283 281 281 281 281 275 273 272 271 271 271 273 276 280 275 280 276 278 277 277 279 278 278 276 281 276 277 277 276 280 284 279 277 279 278 280 282 283 283 283 284 282 282 283 282 282 282 282 282 282 281 281 280 280 281 281 281 281 280 279 278 279 280 281 282 283 282 280 276 277
290 289 282 280 279 275 274 276 274 280 290 288 289 280 276 277 272 273 274 273 276 280 275 274 271 272 269 272 271 280 278 271 276 275 276 280 277 273 278 277 277 279 270 275 277 283 278 276 277 277 277 281 281 281 281 282 283 283 283 283 282 283 283 283 284 285 284 283 281 280 280 280 280 279 281 280 278 279 281 282 282 282 283 283 283 282 279
286 279 277 275 273 272 273 274 285 289 284 283 278 271 270 268 267 264 266 271 273 271 274 272 270 270 270 272 273 282 277 275 271 270 273 279 276 272 277 273 278 276 270 273 274 282 274 274 275 276 276 276 277 278 277 277 279 280 281 282 283 282 283 283 284 284 284 283 284 282 284 283 282 282 279 279 280 279 279 279 280 280 280 281 281 280 279
276 276 275 271 271 275 282 284 286 285 281 272 267 265 265 268 268 264 269 266 266 269 270 267 271 271 272 273 275 274 282 274 270 271 274 276 281 272 275 271 274 273 268 271 273 280 274 272 274 273 274 276 276 277 278 278 280 280 278 279 280 280 281 283 282 283 284 284 283 284 284 285 285 284 281 280 281 280 280 279 279 279 279 279 278 278 278
273 271 272 272 276 276 277 277 274 270 268 263 262 264 264 264 263 265 268 264 263 264 268 269 268 268 272 271 273 271 278 278 273 274 274 271 277 276 271 269 278 268 266 269 273 272 274 273 272 272 273 275 277 277 274 276 280 280 277 276 276 277 278 279 280 279 280 280 279 280 281 281 281 281 282 282 281 281 280 278 277 277 277 276 277 277 276
274 273 272 276 277 278 277 275 268 268 266 266 263 260 261 261 261 257 260 263 263 266 265 266 268 271 271 274 272 276 276 275 274 275 273 270 278 271 268 267 267 266 267 272 271 268 272 269 270 269 270 274 275 274 277 280 279 280 277 274 275 276 276 277 278 277 278 280 279 278 277 276 277 277 277 277 277 276 275 275 274 272 273 273 274 274 273
287 284 280 273 274 274 273 269 266 265 263 261 260 257 257 257 259 263 262 263 261 261 264 268 270 279 276 274 272 271 273 281 277 271 266 266 277 271 266 265 266 263 266 269 269 272 270 268 268 272 273 271 269 273 278 279 278 277 276 274 274 274 274 275 276 277 273 273 274 274 274 274 273 272 273 273 272 271 270 270 271 270 268 268 268 267 267
279 276 271 269 272 271 272 263 272 267 261 258 258 258 259 257 260 259 259 261 259 262 265 272 271 274 270 271 274 274 272 275 277 267 264 265 269 268 270 263 263 268 268 262 267 269 270 271 270 269 267 266 264 266 272 271 271 272 274 273 269 270 270 271 272 274 273 271 270 269 269 269 269 268 267 266 269 272 268 264 264 265 263 262 264 263 262
271 268 267 269 267 270 270 263 269 263 261 260 264 254 258 258 259 257 262 264 263 263 266 268 270 270 269 270 269 268 276 266 273 269 266 268 263 265 266 264 264 259 260 263 264 265 265 264 268 266 266 267 267 265 266 268 268 274 274 271 272 270 270 272 272 271 269 268 268 267 268 266 267 264 263 262 261 262 264 261 259 260 261 261 260 261 261
264 265 268 267 266 267 263 262 263 257 261 263 256 256 258 260 261 262 264 259 260 264 268 267 266 269 267 268 272 271 266 264 268 265 266 263 265 264 265 264 264 262 262 261 260 263 267 269 267 267 267 266 267 266 264 265 265 265 272 275 273 268 266 267 267 267 266 265 264 265 263 262 262 262 260 257 256 256 256 256 257 258 258 259 260 259 258
269 270 266 267 265 266 263 259 259 257 260 260 258 260 261 264 260 262 262 259 262 264 264 265 270 269 270 269 269 267 263 260 263 264 267 260 261 263 267 264 262 264 263 260 260 259 259 263 264 265 264 265 265 265 263 263 262 265 266 265 263 262 262 264 265 265 262 262 262 261 260 259 258 258 257 258 256 254 254 254 254 256 257 258 258 257 256
265 269 267 261 260 263 262 260 256 257 257 258 258 257 258 261 263 261 260 258 260 264 268 268 269 267 268 264 266 265 264 261 266 264 264 265 267 259 260 261 258 261 260 262 261 264 261 262 264 266 264 263 263 263 261 261 260 259 259 261 259 259 260 261 260 258 258 259 259 257 256 255 252 254 255 254 254 254 253 252 252 252 252 254 254 255 254
268 266 265 262 261 258 259 260 261 262 260 257 255 257 261 265 260 260 259 255 262 266 264 265 263 264 260 262 261 265 264 264 264 264 266 258 260 261 263 257 258 259 258 262 266 264 265 266 262 262 259 258 256 256 255 254 254 254 254 254 254 254 255 255 255 255 253 255 255 255 253 252 252 253 253 253 254 254 254 251 251 251 251 251 252 254 254
270 268 264 259 260 260 259 259 262 260 256 257 257 259 255 261 257 256 257 257 256 260 268 272 272 269 261 263 261 259 258 260 264 264 260 257 258 259 258 253 256 262 262 259 260 261 257 251 253 256 253 253 253 252 252 252 254 253 252 252 253 253 253 254 254 253 253 253 253 252 251 253 253 253 253 254 254 254 252 252 252 252 252 250 251 253 254
267 265 261 258 259 261 260 259 262 257 256 262 257 256 255 256 257 257 259 255 256 259 258 260 263 257 258 256 257 260 262 263 259 254 261 261 262 257 257 258 256 261 263 261 256 251 249 248 246 248 250 250 251 250 250 250 251 251 251 251 251 252 252 251 251 253 252 251 251 253 252 251 251 251 252 252 253 254 253 254 252 251 251 250 249 250 250
264 261 261 256 253 252 253 257 257 256 257 256 254 255 254 252 254 253 256 256 261 266 261 257 256 256 255 254 258 257 259 258 255 260 259 252 255 260 257 260 262 259 257 255 253 250 248 247 247 246 246 248 249 247 247 247 248 249 249 249 249 250 250 251 251 251 251 250 250 249 248 248 247 248 250 252 250 252 252 252 252 252 250 250 249 248 247
Wind_Speed
28 32 33 36 38 40 44 40 38 36 47 28 18 18 19 19 11 14 32 31 35 26 20 16 13 12 12 12 11 10 9 12 16 19 16 12 1 5 7 12 10 6 12 13 12 7 3 12 13 6 1 1 5 5 13 14 15 10 2 7 6 8 4 6 2 1 3 3 2 1 1 0 2 2 2 4 8 6 5 2 5 7 1 1 2 7 6
27 32 34 34 39 41 38 46 18 44 45 21 19 18 15 15 22 25 23 32 29 26 24 21 15 8 9 11 9 1 6 15 16 16 19 11 7 11 8 8 18 15 14 20 19 19 9 8 11 3 3 4 6 11 14 22 13 15 13 17 11 9 3 10 4 3 1 3 2 2 1 1 1 1 1 1 3 4 2 3 1 1 8 8 6 20 2
28 30 35 35 36 42 36 37 38 43 42 33 19 16 12 13 10 10 18 23 25 27 15 17 15 14 16 16 15 12 7 13 20 22 20 10 9 10 9 15 13 11 16 17 19 20 14 8 9 3 4 4 1 14 18 21 13 11 5 6 7 4 5 9 7 10 9 9 11 16 12 6 1 1 3 5 7 6 4 5 3 7 8 12 9 13 2
29 30 34 36 36 39 40 19 46 44 37 36 18 12 14 16 18 10 13 19 17 13 11 15 20 18 19 17 12 14 10 9 16 19 18 8 8 5 8 4 11 9 14 12 13 17 5 14 9 8 7 3 2 9 19 21 14 15 14 13 13 3 3 8 12 15 15 16 12 3 13 5 10 12 14 12 8 10 9 2 5 18 6 8 19 7 1
29 30 34 36 37 40 45 22 45 42 36 26 16 9 10 10 12 19 16 15 21 22 7 13 17 19 22 15 12 16 14 11 9 17 12 5 7 3 8 8 14 10 18 14 13 19 10 2 15 18 15 7 6 11 14 15 13 15 11 15 7 5 5 9 13 14 15 5 3 9 18 16 17 11 10 11 10 8 12 11 19 6 7 17 3 4 5
28 29 33 35 38 41 38 2 38 40 32 24 15 12 2 14 9 16 15 13 21 24 15 13 14 10 18 13 18 22 20 17 14 8 2 8 6 10 1 13 18 26 25 19 15 16 11 11 14 11 4 6 3 8 6 11 11 14 7 11 10 9 11 12 10 13 3 1 7 10 9 12 10 14 16 15 15 13 18 23 10 6 12 17 7 11 9
27 29 32 33 37 39 36 22 21 25 21 10 7 12 2 5 5 6 13 18 16 18 12 16 15 18 18 6 15 20 23 23 18 16 7 9 8 11 10 19 20 24 22 20 11 18 12 10 9 15 13 17 13 9 2 6 5 14 8 10 3 9 9 8 11 11 4 1 7 11 13 6 5 11 14 18 18 22 24 21 16 17 17 13 4 5 10
25 29 30 33 36 37 35 27 12 16 11 9 11 2 9 13 18 8 6 5 23 29 22 20 18 16 20 11 14 13 19 19 13 9 15 15 17 14 18 22 23 25 24 23 21 26 28 29 24 20 27 15 14 16 17 10 1 3 9 7 3 6 5 8 5 5 4 1 3 3 6 9 9 9 14 17 21 23 23 19 17 16 17 14 8 13 19
24 27 29 31 34 33 32 27 8 12 8 7 6 1 1 6 8 11 15 16 17 19 19 19 22 15 15 12 12 13 21 21 19 14 13 24 21 19 25 26 23 22 24 22 23 28 28 24 26 20 23 22 17 14 3 11 16 8 6 5 1 3 1 1 6 7 3 0 4 3 3 1 3 8 13 19 21 18 13 9 7 7 17 8 9 17 18
24 26 27 29 31 31 29 26 8 5 10 6 4 7 3 6 4 11 17 15 17 18 14 14 17 18 18 15 17 12 21 16 17 10 5 4 10 19 23 22 19 15 22 25 27 27 22 17 15 22 21 16 14 5 13 17 18 11 9 2 6 4 6 5 5 7 4 1 5 7 4 2 5 12 25 22 10 11 6 12 15 20 14 9 14 22 4
23 24 26 27 29 29 29 25 20 14 3 3 4 5 5 14 15 7 7 13 14 20 19 18 20 11 16 14 17 13 18 21 18 20 9 6 7 6 13 18 18 16 24 19 5 10 11 11 10 7 6 10 10 11 17 18 19 19 14 5 5 7 8 5 4 7 4 1 7 5 5 5 16 13 4 11 16 13 8 13 18 16 9 14 17 9 3
23 24 25 26 27 27 28 24 22 18 7 2 1 5 2 5 14 9 11 17 9 12 19 19 22 15 22 14 17 16 17 19 19 12 11 5 4 9 17 20 18 14 5 15 21 19 17 16 17 15 13 11 8 8 16 19 5 1 11 17 12 14 12 8 3 5 5 4 7 6 7 16 13 4 6 16 12 14 23 24 18 19 19 20 16 10 5
23 23 24 25 26 26 27 26 24 20 14 5 1 8 1 2 9 9 13 15 15 14 15 16 12 13 14 10 11 12 15 10 6 7 6 9 4 7 10 15 18 7 14 19 22 20 14 13 10 10 9 10 10 13 11 9 4 5 2 1 14 14 12 6 3 5 5 4 8 7 18 7 3 1 1 5 12 14 14 13 11 8 9 15 19 21 15
22 23 24 24 25 25 25 25 24 21 17 8 6 5 3 2 9 10 11 14 13 14 14 9 7 9 9 7 9 9 11 8 5 7 5 1 10 12 1 1 7 16 15 19 16 17 9 7 9 8 2 5 5 6 2 4 6 3 5 1 2 15 10 10 4 0 8 5 9 12 6 8 9 5 3 8 8 6 11 9 15 17 16 16 18 18 11
20 22 23 24 25 25 24 24 23 21 15 9 5 9 9 6 3 7 1 13 15 8 10 18 16 17 14 8 13 12 11 7 11 2 1 3 5 2 2 3 11 16 19 17 6 3 6 5 7 10 4 10 8 8 0 4 1 3 2 0 5 10 15 6 12 3 6 8 2 2 6 12 19 2 3 6 8 11 10 9 13 10 15 16 17 13 8
19 21 22 24 25 25 24 24 23 21 17 9 6 9 11 7 1 4 5 8 17 14 9 0 6 16 14 8 12 18 14 11 8 6 4 3 2 2 1 3 6 10 9 5 5 8 7 11 10 12 10 12 6 7 4 2 1 2 5 4 8 5 3 8 14 6 5 3 8 8 11 16 2 8 9 10 7 12 8 4 17 5 12 10 11 12 11
19 20 21 22 24 24 25 25 23 21 17 13 4 9 9 9 5 5 9 6 5 8 4 3 2 5 9 8 6 6 6 10 11 11 7 4 3 5 5 1 3 4 8 10 3 6 6 4 6 5 1 4 8 6 5 4 5 2 2 4 9 8 5 7 4 5 8 10 7 11 5 6 4 7 8 11 8 13 9 1 16 2 10 10 14 15 16
18 19 20 21 22 23 24 24 23 22 18 14 6 10 6 9 7 1 8 8 9 4 3 5 1 11 12 6 8 1 5 6 6 6 8 1 3 5 6 3 6 3 1 13 5 8 8 8 14 10 11 3 4 9 12 9 10 11 11 11 7 6 0 6 15 10 6 8 4 3 7 5 5 7 6 10 11 12 8 20 6 6 7 9 9 12 10
19 19 20 20 21 22 23 24 23 22 21 18 5 6 12 10 9 5 10 5 6 7 3 3 3 2 1 3 4 5 2 7 8 11 9 7 3 4 7 1 4 7 2 7 8 8 10 3 1 4 7 1 1 9 6 11 12 4 12 8 3 2 5 2 4 9 13 12 11 10 6 7 12 1 11 13 10 6 18 5 2 9 6 4 10 10 10
17 18 19 20 20 21 22 22 22 20 20 20 10 11 3 8 8 5 10 9 5 7 4 5 4 3 4 3 8 6 3 4 2 10 11 12 3 9 10 6 4 4 3 3 9 2 6 9 9 2 6 9 7 5 4 2 3 12 7 13 14 13 10 10 11 3 6 4 6 0 10 7 14 14 4 4 9 12 7 3 0 4 8 10 6 7 7
16 17 18 19 19 20 20 21 21 20 19 17 8 4 9 11 10 10 5 13 12 14 6 5 3 6 4 9 7 1 4 10 8 12 5 9 9 10 15 13 15 7 11 10 14 10 6 10 7 4 3 8 7 4 12 9 2 6 7 13 8 9 9 4 7 9 13 13 13 12 10 8 16 22 14 14 10 4 10 8 7 2 5 8 8 8 8
15 16 17 18 19 19 19 20 19 19 18 16 10 8 12 8 7 8 7 12 11 8 6 3 2 9 8 5 3 4 6 5 3 2 11 11 3 1 1 5 5 1 2 3 5 2 2 3 2 4 6 2 1 9 8 11 9 4 2 4 7 10 15 12 16 6 8 10 12 5 4 15 14 12 7 17 16 5 8 10 9 8 6 5 5 11 8
14 15 16 17 18 18 19 19 18 17 18 18 12 11 8 6 7 9 6 18 8 7 4 3 1 3 1 4 3 2 1 1 2 2 3 12 5 3 2 7 4 1 1 0 6 6 4 6 3 4 5 0 9 5 3 2 5 4 8 5 1 2 3 4 7 4 4 6 2 2 0 1 10 2 1 12 17 7 4 6 8 6 7 11 10 8 8
13 14 15 16 17 18 18 18 19 17 16 16 12 8 8 7 7 4 10 8 8 9 4 5 3 6 7 7 8 8 6 4 4 5 2 2 11 1 3 2 2 2 0 2 3 8 6 4 4 2 6 5 5 5 10 4 5 7 6 3 3 3 3 2 4 1 9 9 13 8 5 2 8 11 1 2 3 6 5 4 5 7 8 9 7 8 8
12 13 13 14 15 16 17 17 18 18 18 17 11 8 8 8 9 6 4 11 4 8 6 1 8 3 4 6 6 3 6 5 6 2 3 3 2 8 8 3 3 4 7 3 1 6 4 7 1 1 8 4 7 8 3 11 4 4 7 5 4 3 4 7 3 7 12 13 6 4 5 4 7 8 5 3 5 4 5 4 1 1 3 4 6 3 3
11 12 12 13 14 16 16 16 16 16 17 20 16 10 9 8 8 6 4 6 4 5 9 4 3 5 4 2 6 3 7 8 6 10 12 6 4 7 12 4 5 3 6 2 4 7 5 6 4 2 7 3 0 3 5 3 4 3 8 10 6 5 11 6 9 9 6 3 2 2 7 1 3 3 5 6 6 9 9 6 3 3 4 3 2 2 3
9 11 11 12 13 14 15 15 15 15 17 15 10 10 9 7 9 10 6 2 5 7 4 6 2 2 4 10 4 5 6 7 8 10 11 11 10 5 8 7 9 4 6 5 4 5 4 4 4 3 2 2 4 2 3 3 4 7 4 2 3 9 10 3 6 7 8 14 10 9 5 3 7 9 14 15 9 5 5 4 3 4 5 4 5 1 1
9 10 11 11 12 13 13 13 13 14 13 11 7 9 9 10 8 8 5 3 0 6 8 8 7 5 2 9 9 7 9 8 7 11 11 11 11 10 9 7 6 5 2 6 3 3 3 5 3 1 2 0 6 1 1 1 5 2 1 7 9 12 10 9 10 10 13 12 6 12 13 9 6 10 9 6 5 6 7 11 10 7 3 5 5 4 0
9 9 11 12 13 13 14 15 15 14 13 6 5 6 9 10 10 11 12 11 5 11 11 9 5 6 4 2 6 8 9 9 10 10 11 11 12 11 11 10 7 2 2 5 5 5 5 3 2 5 3 3 5 3 3 2 3 9 8 5 5 2 4 14 14 14 4 1 8 11 8 9 3 3 6 7 5 7 6 2 2 4 4 4 3 2 3
7 9 10 12 13 14 16 16 15 14 9 6 5 6 6 5 8 10 12 8 5 2 8 7 7 1 3 5 5 5 7 8 9 13 13 12 11 10 8 7 7 3 5 4 4 6 1 5 1 1 2 3 4 4 4 3 3 8 1 2 6 2 1 1 0 5 4 1 3 3 4 5 3 4 3 3 4 5 6 4 5 5 3 4 5 4 2
8 8 10 11 13 15 16 17 17 17 12 7 5 6 5 4 5 8 13 7 4 5 4 5 7 3 4 1 3 7 5 5 7 9 10 8 7 5 3 3 5 4 5 4 5 2 3 3 2 1 1 2 1 4 6 6 4 3 4 5 6 6 4 3 1 2 9 7 6 5 5 5 4 4 4 2 3 4 5 2 1 5 7 5 5 5 4
8 9 9 11 13 14 16 18 18 16 12 11 8 3 2 1 3 8 8 5 2 7 5 7 4 3 2 2 2 1 3 2 2 2 4 3 6 5 8 8 4 5 5 5 2 4 2 1 3 1 3 1 5 3 3 3 5 5 2 5 2 4 4 7 7 6 8 9 13 10 6 2 1 5 6 4 3 2 7 7 5 5 6 6 4 4 4
6 9 8 10 11 12 13 13 15 12 6 9 14 14 11 11 10 9 4 3 6 2 2 5 6 2 3 3 0 4 2 2 5 3 5 5 4 3 4 4 4 4 6 5 4 3 1 2 0 3 2 2 3 2 2 6 5 1 6 5 4 3 4 4 7 7 6 2 2 8 7 7 4 1 5 5 5 7 7 7 5 5 6 6 6 5 4
7 7 7 9 10 12 13 14 14 12 10 7 6 7 7 13 11 14 4 5 4 1 4 4 4 4 2 2 4 2 3 3 2 3 4 4 3 4 2 3 4 4 6 4 1 4 2 3 3 2 2 2 1 3 3 4 2 5 4 4 3 4 5 7 5 5 3 4 3 3 7 6 7 7 7 7 5 4 4 5 6 7 4 6 4 3 1
7 7 8 10 11 11 13 12 9 8 4 2 1 3 5 13 11 9 8 2 3 2 3 3 3 5 5 4 3 2 1 4 4 3 4 2 3 3 2 5 4 4 2 3 4 1 2 1 1 4 4 1 3 3 2 3 2 3 5 5 2 6 6 8 1 2 2 2 6 8 9 11 12 8 7 5 6 4 6 3 2 7 6 2 3 2 1
7 7 9 10 8 7 4 8 7 5 6 3 1 6 12 9 8 6 6 6 5 3 4 1 3 3 3 5 3 1 1 4 2 4 2 2 3 3 2 2 4 2 1 3 2 2 1 3 3 1 1 5 5 1 3 5 5 6 6 6 7 5 4 7 9 5 5 6 8 7 7 4 8 8 5 5 4 3 3 4 1 1 4 4 4 3 1
10 9 9 7 6 6 6 1 2 2 1 1 3 7 13 9 2 4 7 6 5 3 4 2 6 3 2 4 1 3 2 3 1 4 3 4 3 1 3 3 4 2 4 3 3 3 1 2 4 1 1 4 1 5 7 6 6 5 4 6 5 2 7 9 10 11 10 9 9 7 5 7 6 5 6 5 3 2 4 4 5 5 3 2 1 4 6
11 9 5 4 4 4 3 4 1 2 2 9 10 4 9 8 4 4 6 6 4 5 6 5 5 1 2 5 2 2 4 2 2 3 2 1 3 2 0 3 2 3 2 2 3 2 2 3 1 2 2 2 2 1 4 5 2 2 5 6 6 6 9 8 7 9 8 6 4 3 4 4 4 2 5 5 5 6 6 4 3 2 1 3 4 4 1
7 3 4 3 3 2 1 1 2 3 3 2 5 2 3 2 4 4 2 2 3 5 4 5 1 2 4 6 3 4 3 3 3 2 3 1 3 1 2 2 1 4 1 3 4 2 1 0 0 1 5 4 4 2 3 3 1 1 2 3 6 7 8 5 5 8 6 4 6 6 6 5 3 4 3 3 3 3 2 1 3 3 3 3 2 0 0
5 3 1 2 3 1 2 4 9 3 2 3 4 4 2 3 4 1 2 3 2 2 2 3 1 3 1 4 6 3 1 3 3 2 2 2 1 3 2 3 2 4 1 3 2 5 3 3 2 1 6 5 4 2 4 4 4 3 2 1 4 4 5 7 4 1 3 2 3 6 5 5 6 5 5 6 5 5 5 5 6 4 3 1 1 0 1
2 1 2 1 1 1 2 4 4 5 3 2 3 3 2 3 2 0 2 2 2 1 0 0 4 4 2 3 4 3 2 4 0 2 3 3 2 4 4 1 2 5 1 1 1 5 1 2 0 4 4 3 7 6 3 2 4 5 2 1 2 3 3 2 2 2 4 4 3 3 4 4 5 5 5 6 7 7 5 3 1 1 1 1 2 3 2
2 2 2 2 1 0 2 5 3 1 2 1 3 1 0 1 1 4 1 3 0 1 3 1 1 1 2 1 1 2 1 1 1 1 2 2 2 3 2 1 3 4 2 2 2 2 1 2 3 3 2 4 5 5 6 7 5 5 3 3 3 2 3 4 4 3 3 3 3 3 2 2 1 1 1 1 1 1 0 1 1 1 2 1 0 0 0
9 7 6 4 2 3 1 2 3 2 1 2 3 2 2 2 0 2 0 1 2 3 3 1 1 1 2 2 3 1 2 1 1 1 3 1 0 4 3 1 1 1 2 2 4 2 3 4 3 3 5 4 1 6 7 6 3 3 3 4 3 2 2 3 3 2 2 1 2 3 3 5 5 2 0 3 3 5 3 3 3 2 3 3 3 3 4
3 3 4 2 2 3 2 1 1 4 3 1 2 2 1 2 1 2 2 2 1 1 2 4 3 5 2 2 3 1 3 3 2 3 3 1 3 0 1 1 2 4 4 3 0 2 4 3 5 3 1 2 2 5 7 4 3 1 1 1 2 3 2 1 1 1 2 4 5 4 4 5 5 4 5 5 3 4 3 5 5 3 2 4 5 4 4
2 2 2 2 2 3 3 2 2 3 3 2 2 1 3 5 4 2 3 2 3 3 1 2 3 5 4 1 3 2 1 1 3 4 1 2 4 1 2 2 0 3 4 2 1 1 4 4 5 1 2 0 2 5 4 3 3 4 2 1 1 2 2 2 1 2 2 4 3 4 5 3 5 6 7 7 6 6 5 4 5 4 4 4 3 4 5
2 1 1 3 1 2 3 1 2 2 3 1 2 7 5 3 5 5 2 1 2 1 6 3 4 5 4 2 4 1 2 2 4 0 0 3 3 1 2 0 4 4 0 2 2 5 6 5 3 3 3 3 3 1 1 1 1 1 2 3 1 4 3 3 3 3 2 3 3 6 5 5 4 5 6 5 5 7 6 4 5 5 3 4 4 4 4
1 2 2 0 2 1 2 2 2 3 1 1 2 3 3 5 3 2 0 1 3 4 4 1 3 2 5 1 2 3 2 1 2 2 4 3 1 1 3 4 0 2 3 2 2 3 3 6 5 5 3 2 1 1 2 2 2 1 2 6 7 5 4 5 5 5 3 3 5 6 6 5 4 3 3 5 6 5 4 4 5 4 4 3 1 1 2
1 1 2 3 2 1 2 3 1 1 0 0 1 1 2 1 4 4 5 2 2 1 5 4 4 2 4 4 4 2 0 1 2 3 2 2 2 6 1 2 1 1 1 4 5 4 3 3 2 3 2 1 1 3 4 4 5 4 3 5 6 6 5 5 6 5 5 5 5 5 5 5 5 5 5 4 5 4 5 4 3 3 3 3 3 3 4
1 1 1 2 0 1 0 2 3 2 3 4 1 2 1 5 6 1 4 3 1 3 2 4 2 3 1 2 3 1 1 2 4 3 2 5 3 2 2 3 2 0 5 6 5 5 3 4 7 5 6 8 9 6 5 6 6 7 7 6 4 3 3 5 5 4 4 6 5 5 5 3 4 5 3 3 3 4 5 4 4 5 5 5 4 4 4
3 1 2 3 1 2 2 1 4 1 3 3 2 2 2 6 5 1 3 2 2 1 0 4 2 6 2 2 2 1 1 2 3 1 6 1 2 0 5 2 3 5 2 4 5 1 3 4 5 7 9 8 7 9 9 8 7 7 7 6 5 5 5 5 6 7 6 5 5 6 4 4 5 4 3 2 1 2 2 4 5 5 4 3 4 4 4
2 2 2 1 1 2 1 3 6 4 0 0 1 1 2 1 1 0 4 1 3 3 5 2 1 2 1 3 1 1 2 1 5 1 5 3 1 4 3 2 4 7 3 1 3 2 3 3 3 3 6 7 7 6 4 5 5 6 5 6 6 4 5 5 5 5 6 4 3 5 7 4 2 1 2 2 2 3 2 3 4 5 5 4 4 4 4
1 1 0 0 2 2 1 0 4 4 1 0 3 1 1 2 4 3 3 2 1 6 1 1 3 2 3 2 3 3 1 6 0 0 3 4 2 6 5 6 3 0 1 2 3 3 3 3 2 3 3 5 6 7 7 6 5 5 6 7 6 6 5 5 5 5 4 4 5 4 2 2 4 2 1 2 2 2 4 3 5 6 6 5 5 4 3
Wind_Direction
316 316 310 308 306 303 306 303 296 180 154 150 160 146 158 163 139 116 151 154 156 166 184 175 182 191 185 144 172 153 159 161 169 165 178 181 125 130 173 170 133 186 149 155 144 152 147 173 194 180 155 240 186 190 152 143 157 130 92 95 203 90 98 91 348 312 310 311 311 328 358 92 307 312 39 131 192 173 164 172 182 184 227 249 298 266 261
317 314 313 309 309 312 311 315 216 157 153 149 146 151 144 133 137 148 161 159 161 173 181 171 159 172 171 176 159 12 150 159 163 174 179 175 168 166 159 172 169 162 167 154 168 166 145 214 185 175 182 187 190 154 145 157 168 168 187 176 190 156 253 131 119 38 351 343 330 338 336 98 178 171 219 109 84 76 142 99 82 219 214 184 139 248 223
320 315 317 315 314 320 323 308 165 156 151 150 152 143 136 117 92 107 149 167 172 183 179 163 166 175 168 160 167 141 155 173 169 168 180 186 175 158 182 172 165 159 161 168 163 176 166 148 212 81 177 167 109 169 160 172 177 194 168 132 137 172 180 136 149 162 168 199 198 210 196 177 213 192 147 176 162 151 135 238 193 240 212 180 214 245 308
325 321 322 321 322 323 326 248 160 156 155 149 140 139 128 155 145 130 142 168 180 198 180 176 165 162 166 161 175 155 139 166 182 173 181 170 168 172 141 112 130 140 156 162 164 175 176 144 172 166 163 160 253 192 175 175 184 183 149 146 148 161 162 187 181 186 195 205 209 102 118 126 188 208 182 195 197 194 193 133 182 226 206 185 231 207 205
330 328 326 327 327 329 334 173 155 152 152 140 134 122 127 122 147 157 158 146 178 190 164 174 172 176 163 162 163 169 161 155 176 180 172 223 154 107 148 149 147 170 157 165 175 182 161 33 151 179 161 172 163 180 184 186 176 138 133 162 113 109 168 212 202 206 214 194 146 191 155 179 203 167 190 193 188 177 190 186 225 117 93 241 169 131 206
335 332 329 330 332 335 343 110 150 150 144 134 147 129 110 158 156 158 165 148 163 179 202 175 175 169 183 165 160 167 163 171 164 178 268 148 179 139 7 173 174 166 171 162 170 179 174 152 172 162 147 107 104 136 209 182 162 149 165 182 167 164 198 212 185 219 176 135 156 156 170 192 185 178 189 190 196 189 202 222 207 157 207 232 121 183 212
340 336 335 337 338 341 346 343 150 143 123 96 121 118 3 74 82 121 153 169 164 192 145 162 170 172 182 164 180 168 167 172 172 165 156 158 188 174 163 189 179 177 170 163 163 168 157 205 174 164 173 169 148 149 130 251 179 169 160 192 191 155 217 181 180 201 145 152 166 174 170 181 153 193 200 202 197 206 212 219 212 216 232 238 246 237 226
343 340 341 343 347 348 348 349 159 137 86 88 82 64 141 155 156 150 41 40 165 170 171 174 169 182 180 169 188 172 170 170 165 176 163 169 187 177 181 185 183 178 175 173 173 181 185 180 182 186 162 163 164 171 175 148 112 176 169 167 287 180 216 123 129 142 213 86 72 209 189 158 187 211 208 208 212 216 214 215 219 228 253 254 282 283 270
346 345 347 349 352 352 355 355 210 137 111 75 92 40 60 104 104 128 127 147 175 175 168 172 176 173 181 186 180 178 178 177 170 176 184 179 174 182 191 183 180 180 179 186 188 188 194 182 177 165 162 170 182 151 244 152 153 164 144 161 156 125 172 44 114 150 243 256 134 138 74 42 185 219 221 220 215 218 220 224 222 217 236 219 245 257 252
352 349 352 353 356 356 360 5 8 23 16 89 111 107 263 80 26 123 151 157 164 167 175 174 165 188 182 177 174 180 184 176 168 167 319 238 213 197 188 169 159 180 184 194 198 191 188 181 171 164 172 165 158 144 147 153 156 160 161 91 133 134 120 127 125 146 223 280 121 125 99 91 313 253 226 215 209 211 203 221 216 218 214 199 225 241 116
355 356 357 359 359 1 359 7 18 20 33 119 104 136 171 144 136 109 113 143 171 168 169 180 188 171 172 187 169 182 179 179 178 170 185 175 217 166 147 155 170 176 196 195 110 81 78 73 69 46 86 127 138 135 148 153 160 162 153 143 146 131 132 160 176 164 192 131 133 103 123 206 233 244 164 167 198 189 190 225 222 227 184 224 226 236 202
359 359 2 2 3 3 359 8 24 29 26 34 14 107 245 134 120 113 139 151 164 174 174 178 178 175 182 168 173 177 174 179 188 188 165 172 177 159 156 170 167 193 177 112 109 103 88 69 63 61 58 61 74 115 139 151 131 47 168 160 159 163 169 180 154 159 167 188 112 133 207 228 237 356 199 182 182 174 203 219 215 217 217 233 246 240 176
2 2 3 5 5 7 4 3 22 32 27 16 86 127 227 318 116 130 146 145 159 174 173 180 183 171 157 151 167 176 171 160 114 104 118 135 129 153 169 170 183 165 138 117 117 114 109 102 70 89 77 71 62 72 73 90 54 56 52 139 163 171 168 127 50 110 65 105 161 168 223 236 330 275 358 201 171 198 202 242 247 248 230 227 237 238 232
6 5 5 6 7 8 12 5 11 24 32 35 85 69 55 9 130 134 151 146 156 167 163 127 111 135 131 138 128 127 118 116 135 119 118 89 147 161 147 202 157 137 135 117 105 109 97 108 117 100 67 68 67 93 312 44 23 72 124 49 190 168 134 153 147 223 151 194 184 225 340 339 268 220 218 146 156 133 166 218 248 227 219 212 231 238 231
9 9 8 8 8 10 11 10 5 12 22 22 94 68 56 37 53 119 164 129 149 150 179 172 167 156 144 146 141 136 138 152 130 71 336 340 76 254 162 157 151 142 134 124 119 51 137 121 122 128 154 141 157 182 356 151 274 50 346 256 136 161 160 179 145 232 129 124 193 329 270 253 242 204 190 159 165 159 160 176 263 224 220 213 222 232 219
13 12 12 10 9 10 10 13 8 7 9 355 50 75 59 33 10 69 87 130 136 156 184 8 153 154 148 158 163 153 156 151 142 120 80 9 65 68 333 141 140 139 120 85 109 125 146 144 154 148 168 171 159 114 223 140 68 352 17 100 102 28 76 158 168 153 76 128 164 203 210 238 126 163 167 179 158 139 125 83 259 224 187 202 198 220 218
15 16 16 14 11 10 10 12 12 6 9 5 49 64 54 3 41 113 104 46 87 124 40 51 329 133 105 117 119 103 146 146 149 142 141 137 147 138 137 3 1 108 149 115 125 110 123 103 146 129 58 146 146 170 107 125 126 97 4 45 111 125 141 119 84 149 185 172 181 221 219 239 233 186 183 173 136 116 100 43 253 164 185 181 183 205 215
17 20 20 18 14 12 11 13 10 2 5 4 35 76 38 355 16 76 79 111 114 65 58 30 37 163 162 171 142 175 117 108 68 77 94 161 107 137 161 140 134 346 173 146 157 135 149 151 161 168 163 250 132 127 175 160 168 175 171 162 146 148 172 190 189 178 180 175 238 329 285 253 229 206 163 139 146 119 132 211 230 219 183 182 172 203 209
17 19 22 23 19 15 16 15 13 1 358 360 293 64 37 0 0 44 108 80 85 117 335 14 318 354 18 5 91 144 170 150 147 121 131 116 216 176 128 180 124 159 13 141 147 156 153 186 17 133 133 241 199 180 130 167 182 136 131 107 94 165 132 328 90 168 181 191 197 226 256 236 185 280 149 157 114 193 208 210 197 139 193 193 183 191 212
18 18 24 23 24 20 18 18 13 11 3 7 21 90 100 15 20 20 113 108 80 91 53 17 360 33 331 128 139 115 83 59 150 127 161 145 201 134 102 128 302 79 79 123 158 198 130 175 175 156 151 160 198 137 114 182 80 155 169 183 175 177 160 186 185 163 46 63 201 288 257 244 142 120 110 302 171 220 176 163 211 194 157 169 209 193 215
23 21 23 24 25 24 22 20 16 17 10 9 9 84 54 12 16 24 35 116 117 104 34 357 20 40 49 58 36 91 141 158 182 151 185 129 172 172 165 177 175 167 172 168 170 190 160 173 170 168 200 150 185 100 176 161 194 290 154 178 178 177 161 178 205 186 175 182 189 205 223 107 158 142 174 201 201 197 154 129 177 213 172 170 181 224 206
26 24 23 25 26 27 25 23 19 20 19 13 20 57 65 1 17 33 54 74 72 64 113 154 104 93 76 69 80 58 94 104 174 187 134 124 358 129 240 99 125 117 175 104 64 53 358 141 77 113 143 135 91 180 162 145 174 187 342 128 176 206 197 183 188 186 160 194 210 220 172 163 186 174 170 179 195 166 185 151 164 163 234 207 164 207 212
28 27 26 24 26 28 30 26 23 24 21 19 26 65 73 22 16 334 80 77 65 77 61 43 240 95 98 74 89 95 120 127 115 117 328 139 132 345 116 139 165 176 42 109 156 135 167 118 156 151 70 35 154 90 23 107 151 162 175 242 114 227 193 81 86 250 295 311 239 80 356 223 207 275 221 182 188 197 165 172 155 213 173 167 184 213 208
31 31 29 28 27 30 30 28 29 27 33 36 41 52 49 43 20 6 73 85 110 123 80 23 68 23 360 355 330 341 27 22 26 288 218 270 138 158 335 290 149 78 19 230 197 136 176 111 177 140 145 210 113 130 154 212 205 181 154 166 225 240 162 97 165 211 164 243 227 185 202 174 204 216 236 320 250 196 169 188 192 189 174 192 220 197 198
22 34 32 31 31 31 32 35 33 36 34 36 44 50 61 39 13 3 96 122 147 126 121 87 38 30 285 260 272 312 2 336 302 1 67 99 92 150 173 183 159 151 174 204 225 83 55 111 99 117 155 240 148 190 192 161 246 153 167 219 134 263 188 170 170 150 179 225 227 187 198 189 211 203 203 235 227 208 204 199 149 180 192 199 197 137 138
23 29 36 35 34 33 35 35 40 42 41 44 47 56 54 46 1 21 70 58 88 85 111 86 40 341 295 349 25 327 300 331 4 41 51 48 61 111 125 119 60 21 111 138 87 98 112 71 97 122 143 220 60 151 183 219 139 173 194 193 196 149 127 202 176 186 247 345 5 50 75 80 243 246 238 231 207 202 212 189 131 140 139 161 148 207 187
16 18 37 39 36 37 35 39 46 44 44 47 51 53 59 49 33 40 57 257 108 64 31 96 137 327 7 53 338 334 341 355 23 53 50 42 61 60 84 88 102 60 80 49 37 112 69 98 107 154 115 177 121 143 140 80 131 145 205 245 106 107 191 166 134 196 215 215 210 138 140 221 245 223 209 216 211 180 191 141 169 196 177 175 165 222 35
23 29 39 36 41 35 33 31 29 25 26 31 41 64 51 50 20 23 20 33 178 139 140 114 119 170 202 48 354 354 360 7 37 57 56 46 42 53 65 77 79 70 20 98 71 40 63 129 155 136 84 300 98 106 62 84 73 33 265 213 195 180 182 154 183 188 219 225 192 181 205 215 226 209 204 179 144 147 164 191 201 204 183 169 156 155 76
25 19 32 41 37 37 29 20 15 15 16 34 28 38 52 44 24 17 13 358 37 93 96 98 73 46 69 87 356 3 1 27 44 60 67 54 46 43 58 57 65 109 79 52 86 86 85 83 56 125 142 203 93 162 89 163 172 214 219 183 183 257 185 182 188 195 237 240 180 185 182 198 216 214 176 167 165 159 166 128 106 148 152 139 130 147 154
22 26 32 39 41 37 26 19 17 13 26 37 42 38 46 4 12 14 356 5 353 72 96 114 95 32 1 25 8 357 16 29 52 59 58 58 51 43 30 53 49 43 79 106 130 101 131 96 57 350 300 353 119 160 141 179 183 239 310 151 183 85 85 231 44 173 219 195 141 136 115 95 64 89 85 114 143 146 144 159 159 134 137 152 126 117 97
37 34 34 41 46 40 39 40 39 42 40 42 58 51 35 44 319 355 339 351 346 82 77 71 96 127 68 48 57 14 357 27 51 59 53 50 60 43 354 52 53 30 62 18 46 97 91 55 95 335 339 1 104 132 174 155 219 304 256 170 173 152 137 96 40 111 123 102 90 88 94 96 137 89 51 86 131 129 106 93 111 131 141 114 106 117 108
39 36 43 52 51 54 54 49 49 52 54 48 49 89 167 153 262 310 323 332 0 59 74 102 72 40 118 45 327 266 325 328 30 32 38 6 41 13 40 47 72 7 70 91 109 65 50 52 86 196 103 344 69 99 83 117 199 243 133 138 167 134 128 116 102 84 96 125 112 75 60 85 252 147 180 180 155 127 119 126 130 123 117 110 118 104 122
51 20 34 56 60 59 54 48 46 49 61 79 69 55 34 24 8 5 341 347 50 55 98 79 98 141 72 233 309 4 348 4 27 17 42 359 41 5 46 9 17 42 356 61 12 100 350 71 133 60 262 19 93 118 131 200 225 212 152 144 134 115 110 100 111 115 115 12 50 143 179 184 201 188 112 122 119 124 127 122 133 122 108 105 96 92 72
67 40 49 72 69 50 41 41 38 42 33 32 26 9 343 10 19 10 21 78 102 120 73 98 93 80 147 320 78 311 33 71 44 18 70 7 321 43 54 49 346 69 346 79 26 67 335 68 70 143 32 5 44 76 245 252 201 132 105 83 102 100 110 108 115 108 28 10 14 89 116 115 100 98 93 101 88 54 74 101 117 95 89 104 120 117 140
71 51 66 86 73 62 53 47 35 43 62 31 23 271 319 10 25 22 30 105 79 13 54 42 102 93 68 24 54 331 335 38 56 356 87 349 7 65 18 60 333 69 301 81 40 99 80 196 220 81 211 125 65 223 236 135 205 127 113 100 112 114 99 101 111 77 42 27 80 86 109 120 112 117 134 134 126 125 115 102 79 117 121 154 168 187 168
88 105 101 85 54 29 17 32 30 14 32 12 280 319 353 341 12 19 34 53 90 124 83 102 74 86 119 117 121 275 36 55 43 41 39 125 26 10 63 102 66 325 29 60 142 35 113 271 71 154 143 129 223 165 181 164 164 165 150 145 175 148 175 170 141 101 77 76 85 93 95 97 126 137 120 122 124 113 113 116 98 109 129 150 193 214 208
85 64 38 27 28 36 39 15 338 67 206 208 289 342 4 1 337 22 13 30 8 59 95 96 66 44 111 168 71 304 43 94 51 48 18 63 108 10 41 48 99 121 45 26 47 120 228 31 98 118 169 190 173 162 164 167 162 180 133 148 167 127 95 96 121 115 92 76 74 63 77 98 91 99 119 130 147 151 138 165 166 150 163 220 193 181 216
82 54 38 23 34 44 13 350 323 261 33 354 347 28 357 23 41 354 6 20 326 39 4 55 70 37 8 68 103 259 73 320 33 113 49 286 63 327 286 97 209 95 103 180 236 172 83 45 161 165 263 87 138 179 186 201 178 70 114 126 116 120 115 123 117 96 95 81 56 58 58 68 88 111 144 161 165 177 204 201 190 222 227 202 203 196 145
48 44 40 25 82 42 98 246 271 13 1 342 38 62 358 5 46 23 325 329 17 10 323 75 50 40 79 63 45 357 137 151 77 3 124 266 102 348 54 86 287 81 308 53 292 124 82 317 43 94 257 191 147 228 241 237 281 231 139 105 126 130 129 138 134 124 139 163 181 184 162 166 176 223 211 205 227 243 243 250 251 235 216 223 235 114 86
36 44 16 24 63 289 311 320 359 8 19 51 337 91 52 354 69 357 331 38 358 327 25 18 265 60 42 126 123 72 26 78 107 95 167 26 352 137 224 79 264 87 212 141 221 68 137 174 214 142 259 165 189 188 169 183 163 226 250 89 117 147 143 159 187 152 140 131 150 181 184 176 174 175 185 204 208 223 243 235 233 232 219 231 46 44 235
12 38 27 92 260 356 295 303 354 47 53 29 15 7 63 22 358 303 50 53 50 253 43 95 14 34 5 44 52 116 318 69 95 97 95 97 238 88 48 133 251 86 288 126 269 81 145 61 208 205 250 147 149 179 169 119 166 218 162 110 120 128 158 144 134 112 115 122 111 137 178 180 179 191 193 194 195 208 225 239 255 226 205 220 239 237 192
218 171 190 128 107 234 7 21 52 41 24 83 103 2 1 210 19 18 75 107 251 268 327 76 5 86 9 44 156 121 10 177 108 71 96 63 310 115 201 24 9 112 180 199 85 51 101 126 231 248 259 163 148 147 149 164 199 190 159 149 154 152 138 163 161 204 192 185 172 132 103 111 95 81 99 109 160 174 152 160 221 218 199 225 174 18 28
73 59 55 53 17 2 77 31 317 94 91 16 40 25 351 57 226 135 243 302 305 90 252 41 236 136 347 42 10 57 149 2 46 0 79 160 4 53 83 32 75 76 241 30 72 198 162 207 223 225 149 192 187 171 177 182 181 180 149 150 160 162 160 169 184 163 66 80 78 91 104 101 104 106 142 136 124 89 62 72 57 62 40 73 72 56 33
36 38 37 338 43 296 77 357 269 54 4 22 89 147 174 43 320 35 53 271 258 7 264 124 212 124 159 332 119 49 21 6 75 84 50 303 72 243 80 84 192 242 45 28 345 175 226 231 211 199 208 242 251 225 214 230 216 162 275 220 124 136 121 109 73 74 58 59 68 77 80 95 104 64 53 43 46 119 117 69 35 47 49 59 69 57 28
79 358 44 25 36 267 59 335 3 113 190 252 136 184 142 174 211 154 162 248 91 224 116 77 97 90 86 269 53 353 66 187 312 93 233 91 53 340 99 228 293 34 87 187 39 313 342 285 279 337 285 261 239 225 226 225 181 163 176 26 205 151 135 154 121 95 77 74 87 89 88 100 85 74 61 63 39 34 80 69 355 28 27 59 67 49 18
75 161 71 81 36 336 113 180 62 14 303 121 193 193 171 229 138 199 253 68 128 147 112 147 64 78 55 318 120 203 35 81 59 317 102 49 103 257 237 8 61 64 355 59 98 201 226 246 285 273 230 217 231 253 193 250 319 336 120 151 33 56 50 80 87 88 86 100 73 81 78 62 81 83 74 61 61 57 58 50 32 33 2 52 37 20 344
34 2 81 136 65 291 73 119 230 202 182 255 259 163 175 176 179 153 140 25 126 182 104 30 96 128 117 100 57 3 37 44 108 265 67 48 181 252 17 78 160 212 150 210 213 250 266 265 247 245 246 261 303 20 30 34 32 35 25 44 56 46 28 70 63 67 26 80 84 75 61 61 58 79 109 73 44 48 43 41 31 20 57 80 54 26 16
104 234 85 81 219 194 105 244 165 101 297 154 234 266 261 204 83 41 337 350 290 354 109 106 74 0 31 306 75 157 57 330 74 310 138 204 48 40 356 48 308 284 180 160 220 217 222 247 292 358 40 53 81 77 38 26 16 31 30 49 55 50 39 68 72 40 26 58 72 80 66 49 45 54 63 96 80 41 39 26 18 33 48 46 44 45 44
145 86 127 188 185 101 186 322 70 94 323 348 335 25 130 107 98 26 316 355 69 135 170 111 177 86 25 286 70 11 41 297 93 251 69 25 101 205 170 178 224 207 257 183 225 202 221 22 352 4 24 25 19 26 24 10 6 7 16 29 34 24 54 75 74 61 47 53 57 72 64 50 55 57 51 48 50 15 16 14 38 45 45 44 35 21 17
45 351 26 54 33 340 261 265 76 44 325 350 24 32 340 81 89 10 311 11 293 313 341 76 56 99 228 86 23 11 220 323 144 13 61 312 214 180 68 24 251 176 246 206 227 308 8 337 331 9 354 4 11 8 1 355 6 8 3 3 10 32 37 67 63 44 54 49 58 65 65 56 51 49 59 48 355 335 352 34 44 37 25 33 36 29 14
12 76 127 342 144 224 111 130 171 196 231 215 91 359 25 64 68 41 3 86 326 48 45 103 188 96 74 35 53 56 274 194 50 59 161 195 194 89 147 177 237 206 220 76 55 18 313 349 354 326 351 1 355 350 353 337 346 337 350 358 1 23 34 42 53 59 56 43 41 58 48 41 357 344 319 337 349 27 69 68 43 32 16 1 13 15 357
63 50 329 339 56 51 11 277 51 82 106 98 105 309 56 45 323 275 317 6 24 99 165 221 77 65 68 141 214 191 11 45 268 312 24 288 165 132 209 202 242 268 282 330 315 340 346 309 350 353 334 317 321 325 315 325 336 351 2 0 7 19 24 34 35 31 42 49 48 60 25 345 340 340 319 24 21 40 23 340 355 3 355 347 335 339 317